Home > Weather > Pocatello > Past weeks

Flag for USA Past Weather in Pocatello, Idaho, USA — Yesterday and Last 2 Weeks

Now
63 °F

Clear.


Feels Like: 63 °F
Forecast: 63 / 96 °F
Wind: No wind

Location: Pocatello Regional Airport

Current Time: Jul 30, 2016 at 5:19:14 AM

Latest Report: Jul 30, 2016 at 4:53 AM


Visibility: 10 mi

Pressure: 29.76 "Hg (25.37 "Hg at 1357m altitude)

Humidity: 43%

Dew Point: 40 °F

Location of PocatelloLocation

Past Weather in Pocatello — Graph

°F

Pocatello Temperature Yesterday

Maximum temperature yesterday: 96 °F (at 5:53 PM)
Minimum temperature yesterday: 60 °F (at 3:53 AM)
Average temperature yesterday: 80 °F

High & Low Weather Summary for the Past Weeks

 TemperatureHumidityPressure
High98 °F (Jul 26, 4:53 PM)74% (Jul 15, 5:53 AM)30.09 "Hg (Jul 15, 5:53 AM)
Low45 °F (Jul 15, 5:53 AM)7% (Jul 26, 5:53 PM)28.46 "Hg (Jul 22, 2:53 AM)
Average75 °F27%29.90 "Hg
* Reported Jul 15 3:53 AM — Jul 30 3:53 AM, Pocatello, Weather by CustomWeather, © 2016

Note: Actual official high and low records may vary slightly from our data, if they occured in-between our weather recording intervals... More about our weather records

Advertising

Pocatello Weather History for the Previous 24 Hours

Scroll right to see more
 ConditionsComfort  
Time TempWeatherWind HumidityBarometerVisibility
3:53 AM
Sat, Jul 30
65 °FPassing clouds.No wind40%29.76 "Hg10 mi
2:53 AM71 °FClear.9 mph31%29.75 "Hg10 mi
1:53 AM63 °FClear.6 mph43%29.77 "Hg10 mi
12:53 AM80 °FClear.8 mph21%29.74 "Hg10 mi
11:53 PM
Fri, Jul 29
83 °FClear.14 mph19%29.74 "Hg10 mi
10:53 PM83 °FClear.12 mph19%29.76 "Hg10 mi
9:53 PM81 °FSunny.12 mph20%29.76 "Hg10 mi
8:53 PM83 °FSunny.12 mph21%29.76 "Hg10 mi
7:53 PM90 °FSunny.13 mph17%29.76 "Hg10 mi
6:53 PM94 °FSunny.16 mph14%29.77 "Hg10 mi
5:53 PM96 °FSunny.13 mph13%29.78 "Hg10 mi
4:53 PM95 °FSunny.9 mph12%29.81 "Hg10 mi
3:53 PM93 °FSunny.5 mph11%29.85 "Hg10 mi
2:53 PM92 °FSunny.9 mph12%29.88 "Hg10 mi
1:53 PM91 °FSunny.7 mph16%29.88 "Hg10 mi
12:53 PM88 °FSunny.6 mph18%29.89 "Hg10 mi
11:53 AM87 °FSunny.6 mph18%29.91 "Hg10 mi
10:53 AM83 °FSunny.7 mph21%29.93 "Hg10 mi
9:53 AM78 °FSunny.10 mph30%29.93 "Hg10 mi
8:53 AM73 °FSunny.7 mph38%29.94 "Hg10 mi
7:53 AM67 °FClear.10 mph33%29.92 "Hg10 mi
6:53 AM64 °FClear.10 mph37%29.92 "Hg10 mi
5:53 AM61 °FClear.12 mph36%29.90 "Hg10 mi
Weather by CustomWeather, © 2016

See weather overviewHow to use our weather pages